Weather History for KMLE - October, 2011

Change the Weather History Date:

Monday, October 17, 2011

  Actual Average (KOMA) Record (KOMA)
Temperature  
Mean Temperature 46 °F 53 °F  
Max Temperature 50 °F 64 °F 84 °F (1947)
Min Temperature 41 °F 41 °F 18 °F (1976)
Degree Days  
Heating Degree Days 20 12  
Month to date heating degree days 167  
Since 1 July heating degree days 270  
Cooling Degree Days 0 0  
Month to date cooling degree days 12  
Year to date cooling degree days 1109  
Moisture  
Dew Point 38 °F    
Average Humidity 73    
Maximum Humidity 87    
Minimum Humidity 62    
Precipitation  
Precipitation 0.15 in 0.07 in 2.72 in (1883)
Month to date precipitation 1.24  
Year to date precipitation 27.03  
Snow  
Snow 0.00 in 0.00 in - ()
Month to date snowfall 0.1  
Since 1 July snowfall 0.1  
Snow Depth -    
Sea Level Pressure  
Sea Level Pressure 30.03 in    
Wind  
Wind Speed 2 mph (NW)    
Max Wind Speed 13 mph    
Max Gust Speed 20 mph    
Visibility 10 miles    
Events Rain    
T = Trace of Precipitation, MM = Missing Value Source: NWS Daily Summary

Daily Weather History Graph

Daily Weather History Graph

Search for Another Location

Airport or City:

Trip Planner

Search our weather history database for the weather conditions in past years. The results will help you decide how hot, cold, wet, or windy it might be!

Date:

Astronomy

Oct. 17, 2011 Rise Set
Actual Time 7:38 AM CDT 6:40 PM CDT
Civil Twilight 7:10 AM CDT 7:08 PM CDT
Nautical Twilight 6:38 AM CDT 7:40 PM CDT
Astronomical Twilight 6:06 AM CDT 8:12 PM CDT
Moon 10:20 PM CDT (10/17) 12:47 PM CDT (10/17)
Length of Visible Light 11h 58m
Length of Day
11h 02m
Waning Gibbous, 74% of the Moon is Illuminated
Oct 17
Waning Gibbous
Oct 19
Last Quarter
Oct 26
New
Nov 2
First Quarter
Nov 10
Full

Hourly Weather History & Observations

Time (CDT) Temp. Windchill Dew Point Humidity Pressure Visibility Wind Dir Wind Speed Gust Speed Precip Events Conditions
12:15 AM 42.8 °F - 35.6 °F 76% 30.05 in 10.0 mi Calm Calm - N/A   Clear
12:35 AM 41.0 °F - 35.6 °F 81% 30.04 in 10.0 mi Calm Calm - N/A   Clear
1:15 AM 41.0 °F - 35.6 °F 81% 30.04 in 10.0 mi Calm Calm - N/A   Clear
1:35 AM 41.0 °F - 35.6 °F 81% 30.03 in 10.0 mi Calm Calm - N/A   Clear
2:35 AM 41.0 °F - 35.6 °F 81% 30.04 in 10.0 mi Calm Calm - N/A   Clear
3:15 AM 41.0 °F - 35.6 °F 81% 30.03 in 10.0 mi Calm Calm - N/A   Clear
3:35 AM 41.0 °F - 33.8 °F 76% 30.02 in 10.0 mi Calm Calm - N/A   Clear
3:55 AM 41.0 °F - 35.6 °F 81% 30.02 in 10.0 mi Calm Calm - N/A   Clear
4:15 AM 41.0 °F - 35.6 °F 81% 30.01 in 10.0 mi Calm Calm - N/A   Clear
4:35 AM 41.0 °F - 35.6 °F 81% 30.02 in 10.0 mi Calm Calm - N/A   Scattered Clouds
4:55 AM 42.8 °F - 35.6 °F 76% 30.02 in 10.0 mi Calm Calm - N/A   Scattered Clouds
5:15 AM 42.8 °F 41.1 °F 37.4 °F 81% 30.03 in 10.0 mi NW 3.5 mph - N/A   Mostly Cloudy
5:35 AM 44.6 °F - 35.6 °F 71% 30.02 in 10.0 mi Calm Calm - N/A   Overcast
5:55 AM 44.6 °F - 35.6 °F 71% 30.01 in 10.0 mi Calm Calm - N/A   Light Drizzle
6:15 AM 44.6 °F - 35.6 °F 71% 30.01 in 10.0 mi Calm Calm - N/A   Light Drizzle
6:35 AM 44.6 °F - 37.4 °F 76% 30.00 in 10.0 mi Calm Calm - N/A   Overcast
6:55 AM 44.6 °F - 37.4 °F 76% 30.00 in 10.0 mi Calm Calm - N/A Rain Light Rain
7:15 AM 46.4 °F - 35.6 °F 66% 30.00 in 10.0 mi Calm Calm - N/A   Light Drizzle
7:35 AM 46.4 °F - 35.6 °F 66% 30.01 in 10.0 mi Calm Calm - N/A   Light Drizzle
7:55 AM 46.4 °F - 33.8 °F 62% 30.01 in 10.0 mi Calm Calm - N/A   Light Drizzle
8:15 AM 46.4 °F - 35.6 °F 66% 30.03 in 10.0 mi Calm Calm - N/A   Overcast
8:35 AM 46.4 °F 45.2 °F 37.4 °F 71% 30.04 in 10.0 mi WNW 3.5 mph - N/A   Overcast
8:55 AM 46.4 °F 45.2 °F 35.6 °F 66% 30.04 in 10.0 mi NW 3.5 mph - N/A   Mostly Cloudy
9:15 AM 46.4 °F 44.3 °F 35.6 °F 66% 30.06 in 10.0 mi WNW 4.6 mph - N/A   Overcast
9:35 AM 46.4 °F 44.3 °F 37.4 °F 71% 30.06 in 10.0 mi WNW 4.6 mph - N/A   Overcast
9:55 AM 46.4 °F 44.3 °F 35.6 °F 66% 30.06 in 10.0 mi NW 4.6 mph - N/A   Light Drizzle
10:15 AM 46.4 °F - 35.6 °F 66% 30.06 in 10.0 mi Calm Calm - N/A   Drizzle
10:35 AM 46.4 °F - 37.4 °F 71% 30.06 in 7.0 mi Calm Calm - N/A Rain Rain
10:55 AM 44.6 °F - 39.2 °F 81% 30.05 in 1.8 mi Calm Calm - 0.07 in Rain Light Rain
11:15 AM 44.6 °F - 39.2 °F 81% 30.04 in 10.0 mi Calm Calm - 0.01 in Rain Light Rain
11:35 AM 46.4 °F - 41.0 °F 81% 30.05 in 10.0 mi Calm Calm - 0.01 in Rain Light Rain
11:55 AM 46.4 °F - 41.0 °F 81% 30.04 in 10.0 mi Calm Calm - 0.02 in Rain Light Rain
12:15 PM 46.4 °F - 41.0 °F 81% 30.05 in 10.0 mi Calm Calm - N/A Rain Rain
12:35 PM 46.4 °F - 41.0 °F 81% 30.06 in 10.0 mi Calm Calm - 0.01 in Rain Light Rain
12:55 PM 46.4 °F - 41.0 °F 81% 30.06 in 10.0 mi Calm Calm - 0.02 in Rain Rain
1:15 PM 46.4 °F 44.3 °F 42.8 °F 87% 30.06 in 7.0 mi WNW 4.6 mph - 0.03 in Rain Rain
2:15 PM 46.4 °F 45.2 °F 41.0 °F 81% 30.03 in 10.0 mi WNW 3.5 mph - 0.01 in Rain Light Rain
2:35 PM 48.2 °F - 42.8 °F 82% 30.03 in 10.0 mi NW 6.9 mph - 0.01 in   Mostly Cloudy
2:55 PM 50.0 °F - 42.8 °F 76% 30.02 in 10.0 mi NW 6.9 mph - 0.01 in   Overcast
3:15 PM 50.0 °F - 41.0 °F 71% 30.02 in 10.0 mi NW 5.8 mph - N/A   Overcast
3:35 PM 50.0 °F - 41.0 °F 71% 30.01 in 10.0 mi WNW 9.2 mph - N/A   Overcast
3:55 PM 50.0 °F - 41.0 °F 71% 30.01 in 10.0 mi NW 9.2 mph - N/A   Overcast
4:15 PM 50.0 °F - 41.0 °F 71% 30.01 in 10.0 mi NW 12.7 mph 17.3 mph N/A   Overcast
4:35 PM 50.0 °F - 41.0 °F 71% 30.01 in 10.0 mi NW 9.2 mph - N/A   Overcast
4:55 PM 50.0 °F - 41.0 °F 71% 30.01 in 10.0 mi NW 11.5 mph 19.6 mph N/A   Mostly Cloudy
5:15 PM 50.0 °F - 41.0 °F 71% 30.01 in 10.0 mi NW 9.2 mph - N/A   Scattered Clouds
5:35 PM 50.0 °F - 41.0 °F 71% 30.00 in 10.0 mi NW 9.2 mph - N/A   Scattered Clouds
5:55 PM 50.0 °F - 41.0 °F 71% 30.01 in 10.0 mi NW 11.5 mph - N/A   Scattered Clouds
6:15 PM 50.0 °F - 41.0 °F 71% 30.01 in 10.0 mi NW 10.4 mph - N/A   Clear
6:35 PM 50.0 °F - 39.2 °F 66% 30.01 in 10.0 mi NW 10.4 mph 16.1 mph N/A   Scattered Clouds
7:15 PM 50.0 °F - 37.4 °F 62% 30.02 in 10.0 mi NW 11.5 mph 17.3 mph N/A   Scattered Clouds
7:35 PM 50.0 °F - 37.4 °F 62% 30.03 in 10.0 mi NW 11.5 mph - N/A   Mostly Cloudy
7:55 PM 50.0 °F - 37.4 °F 62% 30.03 in 10.0 mi NW 9.2 mph - N/A   Overcast
8:15 PM 50.0 °F - 39.2 °F 66% 30.04 in 10.0 mi NW 11.5 mph - N/A   Overcast
8:35 PM 50.0 °F - 39.2 °F 66% 30.04 in 10.0 mi NW 12.7 mph 16.1 mph N/A   Overcast
8:55 PM 50.0 °F - 37.4 °F 62% 30.04 in 10.0 mi NW 8.1 mph - N/A   Overcast
9:15 PM 50.0 °F - 39.2 °F 66% 30.04 in 10.0 mi WNW 6.9 mph - N/A   Overcast
9:35 PM 50.0 °F - 39.2 °F 66% 30.05 in 10.0 mi NW 8.1 mph - N/A   Overcast
9:55 PM 50.0 °F - 39.2 °F 66% 30.05 in 10.0 mi NW 5.8 mph - N/A   Overcast
10:15 PM 50.0 °F - 37.4 °F 62% 30.05 in 10.0 mi NW 10.4 mph - N/A   Overcast
10:35 PM 51.8 °F - 35.6 °F 54% 30.05 in 10.0 mi NW 8.1 mph - N/A   Overcast
10:55 PM 50.0 °F - 35.6 °F 58% 30.03 in 10.0 mi NW 10.4 mph - N/A   Overcast
11:15 PM 50.0 °F - 35.6 °F 58% 30.03 in 10.0 mi NW 11.5 mph 16.1 mph N/A   Overcast
11:35 PM 50.0 °F - 35.6 °F 58% 30.03 in 10.0 mi NW 10.4 mph - N/A   Overcast